GLO1740 SBBR-SBEG

Flight info

Callsign GLO1740
Flight time 2h 34m
Altitude 36000
Route UGUGA UM409 ESMAR DCT IRUMO
Aircraft B738/M-SDFGIKLORWXY/LB1

Departure

Time 2026-04-16 20:15
Airport Presidente Juscelino Kubitschek International Airport (SBBR)

Arrival

Time 2026-04-16 22:49
Airport Eduardo Gomes International Airport (SBEG)
Time Latitude Longitude Altitude Speed Heading
2026-04-16 19:58 -15.86707 -47.91844 3471 ft 0 kts 175°
2026-04-16 20:09 -15.86705 -47.91844 3471 ft 2 kts 175°
2026-04-16 20:09 -15.86679 -47.91847 3469 ft 4 kts 173°
2026-04-16 20:09 -15.86652 -47.91849 3471 ft 4 kts 185°
2026-04-16 20:09 -15.86636 -47.91845 3470 ft 4 kts 211°
2026-04-16 20:10 -15.86614 -47.91822 3467 ft 4 kts 255°
2026-04-16 20:10 -15.86611 -47.91804 3469 ft 4 kts 265°
2026-04-16 20:10 -15.86610 -47.91791 3467 ft 1 kts 266°
2026-04-16 20:12 -15.86610 -47.91792 3467 ft 1 kts 266°
2026-04-16 20:12 -15.86612 -47.91809 3469 ft 5 kts 266°
2026-04-16 20:12 -15.86615 -47.91863 3470 ft 10 kts 265°
2026-04-16 20:12 -15.86622 -47.91950 3470 ft 14 kts 265°
2026-04-16 20:13 -15.86629 -47.92068 3471 ft 18 kts 267°
2026-04-16 20:13 -15.86615 -47.92208 3470 ft 22 kts 296°
2026-04-16 20:13 -15.86534 -47.92355 3468 ft 24 kts 290°
2026-04-16 20:13 -15.86535 -47.92522 3465 ft 23 kts 265°
2026-04-16 20:14 -15.86546 -47.92683 3463 ft 22 kts 266°
2026-04-16 20:14 -15.86461 -47.92770 3460 ft 20 kts 357°
2026-04-16 20:14 -15.86359 -47.92695 3459 ft 19 kts 68°
2026-04-16 20:14 -15.86340 -47.92468 3463 ft 60 kts 86°
2026-04-16 20:15 -15.86297 -47.91807 3463 ft 122 kts 86°
2026-04-16 20:15 -15.86232 -47.90741 3481 ft 172 kts 88°
2026-04-16 20:15 -15.86147 -47.89414 3950 ft 187 kts 85°
2026-04-16 20:15 -15.86047 -47.88079 4828 ft 182 kts 86°
2026-04-16 20:16 -15.85965 -47.86761 5556 ft 187 kts 87°
2026-04-16 20:16 -15.85877 -47.85339 5838 ft 213 kts 86°
2026-04-16 20:16 -15.85776 -47.83720 6043 ft 237 kts 86°
2026-04-16 20:16 -15.85614 -47.81909 6246 ft 262 kts 77°
2026-04-16 20:17 -15.84807 -47.80147 6664 ft 278 kts 52°
2026-04-16 20:17 -15.83348 -47.78806 7339 ft 284 kts 28°
2026-04-16 20:17 -15.81498 -47.78165 8088 ft 286 kts
2026-04-16 20:17 -15.79535 -47.78414 8823 ft 288 kts 334°
2026-04-16 20:18 -15.77876 -47.79569 9632 ft 288 kts 319°
2026-04-16 20:18 -15.76387 -47.80980 10332 ft 294 kts 315°
2026-04-16 20:18 -15.74867 -47.82536 10538 ft 318 kts 314°
2026-04-16 20:18 -15.73255 -47.84218 10781 ft 338 kts 314°
2026-04-16 20:19 -15.71574 -47.85969 11319 ft 345 kts 314°
2026-04-16 20:19 -15.69867 -47.87735 11982 ft 349 kts 314°
2026-04-16 20:19 -15.68136 -47.89515 12660 ft 351 kts 314°
2026-04-16 20:19 -15.66386 -47.91306 13340 ft 355 kts 315°
2026-04-16 20:20 -15.64614 -47.93111 13975 ft 358 kts 315°
2026-04-16 20:20 -15.62822 -47.94933 14523 ft 362 kts 315°
2026-04-16 20:20 -15.61010 -47.96771 15056 ft 367 kts 315°
2026-04-16 20:20 -15.59169 -47.98638 15588 ft 371 kts 315°
2026-04-16 20:21 -15.57317 -48.00514 16111 ft 375 kts 315°
2026-04-16 20:21 -15.55441 -48.02414 16610 ft 379 kts 315°
2026-04-16 20:21 -15.53567 -48.04310 17100 ft 383 kts 315°
2026-04-16 20:21 -15.51655 -48.06244 17595 ft 386 kts 315°
2026-04-16 20:22 -15.49724 -48.08198 18062 ft 390 kts 315°
2026-04-16 20:22 -15.47769 -48.10175 18481 ft 394 kts 315°
2026-04-16 20:22 -15.45801 -48.12164 18930 ft 395 kts 315°
2026-04-16 20:22 -15.43826 -48.14159 19392 ft 397 kts 315°
2026-04-16 20:23 -15.41844 -48.16162 19833 ft 398 kts 315°
2026-04-16 20:23 -15.39851 -48.18175 20260 ft 401 kts 315°
2026-04-16 20:23 -15.37846 -48.20199 20674 ft 403 kts 315°
2026-04-16 20:23 -15.35834 -48.22230 21091 ft 405 kts 315°
2026-04-16 20:24 -15.33808 -48.24275 21507 ft 407 kts 315°
2026-04-16 20:24 -15.31776 -48.26325 21911 ft 409 kts 315°
2026-04-16 20:24 -15.29728 -48.28390 22301 ft 412 kts 315°
2026-04-16 20:24 -15.27669 -48.30466 22690 ft 414 kts 315°
2026-04-16 20:25 -15.25603 -48.32549 23069 ft 416 kts 315°
2026-04-16 20:25 -15.23520 -48.34647 23441 ft 418 kts 315°
2026-04-16 20:25 -15.21450 -48.36733 23755 ft 420 kts 315°
2026-04-16 20:25 -15.19354 -48.38845 24074 ft 422 kts 315°
2026-04-16 20:26 -15.17244 -48.40969 24383 ft 424 kts 315°
2026-04-16 20:26 -15.15128 -48.43099 24679 ft 426 kts 315°
2026-04-16 20:26 -15.12997 -48.45244 24978 ft 428 kts 315°
2026-04-16 20:26 -15.10860 -48.47393 25277 ft 430 kts 315°
2026-04-16 20:27 -15.08710 -48.49555 25586 ft 431 kts 315°
2026-04-16 20:27 -15.06552 -48.51725 25881 ft 433 kts 314°
2026-04-16 20:27 -15.04383 -48.53905 26171 ft 435 kts 314°
2026-04-16 20:27 -15.02204 -48.56094 26466 ft 437 kts 314°
2026-04-16 20:28 -15.00016 -48.58292 26750 ft 439 kts 314°
2026-04-16 20:28 -14.97819 -48.60499 27035 ft 441 kts 314°
2026-04-16 20:28 -14.95646 -48.62680 27310 ft 443 kts 314°
2026-04-16 20:28 -14.93429 -48.64905 27584 ft 445 kts 314°
2026-04-16 20:29 -14.91208 -48.67133 27857 ft 446 kts 314°
2026-04-16 20:29 -14.88973 -48.69375 28117 ft 448 kts 314°
2026-04-16 20:29 -14.86733 -48.71620 28390 ft 450 kts 314°
2026-04-16 20:29 -14.84481 -48.73878 28653 ft 451 kts 314°
2026-04-16 20:30 -14.82224 -48.76139 28917 ft 453 kts 314°
2026-04-16 20:30 -14.79955 -48.78413 29167 ft 455 kts 314°
2026-04-16 20:30 -14.77676 -48.80695 29414 ft 457 kts 314°
2026-04-16 20:30 -14.75388 -48.82986 29659 ft 458 kts 313°
2026-04-16 20:31 -14.73091 -48.85284 29893 ft 460 kts 313°
2026-04-16 20:31 -14.70791 -48.87585 30102 ft 461 kts 313°
2026-04-16 20:31 -14.68479 -48.89898 30295 ft 463 kts 313°
2026-04-16 20:31 -14.66162 -48.92214 30480 ft 465 kts 313°
2026-04-16 20:32 -14.63865 -48.94510 30691 ft 465 kts 313°
2026-04-16 20:32 -14.61537 -48.96835 30972 ft 465 kts 313°
2026-04-16 20:32 -14.59220 -48.99149 31267 ft 464 kts 313°
2026-04-16 20:32 -14.56900 -49.01465 31524 ft 464 kts 313°
2026-04-16 20:33 -14.54584 -49.03777 31768 ft 464 kts 313°
2026-04-16 20:33 -14.52263 -49.06094 32033 ft 464 kts 313°
2026-04-16 20:33 -14.49949 -49.08403 32301 ft 463 kts 313°
2026-04-16 20:33 -14.47630 -49.10716 32567 ft 463 kts 313°
2026-04-16 20:34 -14.45311 -49.13028 32828 ft 463 kts 313°
2026-04-16 20:34 -14.42997 -49.15335 33094 ft 463 kts 313°
2026-04-16 20:34 -14.40679 -49.17645 33360 ft 463 kts 313°
2026-04-16 20:34 -14.38366 -49.19949 33624 ft 463 kts 313°
2026-04-16 20:35 -14.36049 -49.22256 33881 ft 463 kts 313°
2026-04-16 20:35 -14.33732 -49.24563 34092 ft 463 kts 313°
2026-04-16 20:35 -14.31415 -49.26869 34326 ft 462 kts 313°
2026-04-16 20:35 -14.29103 -49.29169 34587 ft 461 kts 313°
2026-04-16 20:36 -14.26802 -49.31458 34825 ft 460 kts 313°
2026-04-16 20:36 -14.24497 -49.33750 35039 ft 460 kts 313°
2026-04-16 20:36 -14.22224 -49.36010 35257 ft 459 kts 313°
2026-04-16 20:36 -14.19928 -49.38292 35489 ft 459 kts 313°
2026-04-16 20:37 -14.17630 -49.40575 35714 ft 458 kts 313°
2026-04-16 20:37 -14.15334 -49.42857 35866 ft 459 kts 313°
2026-04-16 20:37 -14.10719 -49.47439 35856 ft 460 kts 313°
2026-04-16 20:38 -14.06125 -49.51997 35849 ft 456 kts 313°
2026-04-16 20:38 -14.01553 -49.56496 35853 ft 454 kts 314°
2026-04-16 20:39 -13.96803 -49.60763 35854 ft 453 kts 316°
2026-04-16 20:39 -13.92005 -49.64961 35857 ft 452 kts 316°
2026-04-16 20:40 -13.87234 -49.69175 35858 ft 453 kts 316°
2026-04-16 20:40 -13.82488 -49.73400 35859 ft 455 kts 316°
2026-04-16 20:41 -13.77666 -49.77701 35853 ft 457 kts 316°
2026-04-16 20:41 -13.72889 -49.81959 35852 ft 459 kts 316°
2026-04-16 20:42 -13.68042 -49.86275 35850 ft 461 kts 316°
2026-04-16 20:42 -13.63190 -49.90592 35851 ft 462 kts 316°
2026-04-16 20:43 -13.58317 -49.94926 35850 ft 462 kts 316°
2026-04-16 20:43 -13.53458 -49.99246 35851 ft 462 kts 316°
2026-04-16 20:44 -13.48625 -50.03539 35852 ft 461 kts 316°
2026-04-16 20:44 -13.43768 -50.07851 35851 ft 460 kts 316°
2026-04-16 20:45 -13.38926 -50.12148 35846 ft 459 kts 316°
2026-04-16 20:45 -13.34096 -50.16433 35847 ft 458 kts 316°
2026-04-16 20:46 -13.29271 -50.20710 35850 ft 457 kts 316°
2026-04-16 20:46 -13.24456 -50.24977 35854 ft 456 kts 316°
2026-04-16 20:47 -13.19642 -50.29241 35861 ft 460 kts 316°
2026-04-16 20:47 -13.14796 -50.33531 35861 ft 467 kts 316°
2026-04-16 20:48 -13.09851 -50.37908 35857 ft 471 kts 316°
2026-04-16 20:48 -13.04868 -50.42315 35853 ft 474 kts 316°
2026-04-16 20:49 -12.99867 -50.46735 35849 ft 475 kts 316°
2026-04-16 20:49 -12.94861 -50.51158 35847 ft 474 kts 316°
2026-04-16 20:50 -12.89874 -50.55563 35845 ft 472 kts 316°
2026-04-16 20:50 -12.84907 -50.59947 35847 ft 470 kts 316°
2026-04-16 20:51 -12.79963 -50.64309 35841 ft 468 kts 316°
2026-04-16 20:51 -12.75067 -50.68627 35843 ft 466 kts 316°
2026-04-16 20:52 -12.70161 -50.72951 35845 ft 464 kts 317°
2026-04-16 20:52 -12.65267 -50.77262 35844 ft 464 kts 317°
2026-04-16 20:53 -12.60378 -50.81567 35844 ft 464 kts 317°
2026-04-16 20:53 -12.55485 -50.85873 35845 ft 464 kts 317°
2026-04-16 20:54 -12.50583 -50.90185 35844 ft 465 kts 317°
2026-04-16 20:54 -12.45672 -50.94502 35845 ft 466 kts 317°
2026-04-16 20:55 -12.40746 -50.98831 35845 ft 467 kts 317°
2026-04-16 20:55 -12.35802 -51.03172 35845 ft 468 kts 317°
2026-04-16 20:56 -12.30854 -51.07515 35846 ft 469 kts 317°
2026-04-16 20:56 -12.25899 -51.11863 35843 ft 470 kts 317°
2026-04-16 20:57 -12.20933 -51.16218 35843 ft 470 kts 317°
2026-04-16 20:57 -12.16003 -51.20539 35845 ft 470 kts 317°
2026-04-16 20:58 -12.11035 -51.24892 35850 ft 470 kts 317°
2026-04-16 20:58 -12.06076 -51.29236 35849 ft 469 kts 317°
2026-04-16 20:59 -12.01139 -51.33560 35836 ft 463 kts 317°
2026-04-16 20:59 -11.97104 -51.37090 35841 ft 457 kts 317°
2026-04-16 21:00 -11.92291 -51.41302 35843 ft 454 kts 317°
2026-04-16 21:00 -11.87499 -51.45494 35850 ft 452 kts 317°
2026-04-16 21:01 -11.82726 -51.49667 35848 ft 451 kts 317°
2026-04-16 21:01 -11.77961 -51.53831 35859 ft 451 kts 317°
2026-04-16 21:02 -11.73183 -51.58004 35858 ft 453 kts 317°
2026-04-16 21:03 -11.65983 -51.64289 35858 ft 455 kts 317°
2026-04-16 21:03 -11.61157 -51.68499 35854 ft 457 kts 317°
2026-04-16 21:04 -11.56324 -51.72713 35849 ft 458 kts 317°
2026-04-16 21:04 -11.51459 -51.76953 35852 ft 460 kts 317°
2026-04-16 21:05 -11.46625 -51.81164 35848 ft 460 kts 317°
2026-04-16 21:05 -11.41748 -51.85410 35848 ft 461 kts 318°
2026-04-16 21:06 -11.36871 -51.89655 35847 ft 460 kts 318°
2026-04-16 21:06 -11.32000 -51.93894 35843 ft 460 kts 318°
2026-04-16 21:07 -11.27137 -51.98116 35846 ft 459 kts 318°
2026-04-16 21:07 -11.22240 -52.02283 35844 ft 458 kts 319°
2026-04-16 21:08 -11.17334 -52.06424 35847 ft 458 kts 319°
2026-04-16 21:08 -11.12468 -52.10538 35842 ft 457 kts 319°
2026-04-16 21:09 -11.07583 -52.14675 35846 ft 457 kts 318°
2026-04-16 21:09 -11.02699 -52.18812 35848 ft 456 kts 319°
2026-04-16 21:10 -10.97815 -52.22948 35848 ft 456 kts 319°
2026-04-16 21:10 -10.92937 -52.27076 35844 ft 456 kts 319°
2026-04-16 21:11 -10.88050 -52.31210 35844 ft 456 kts 319°
2026-04-16 21:11 -10.83169 -52.35337 35845 ft 457 kts 319°
2026-04-16 21:12 -10.78278 -52.39471 35844 ft 457 kts 319°
2026-04-16 21:12 -10.73391 -52.43600 35841 ft 457 kts 319°
2026-04-16 21:13 -10.68533 -52.47703 35842 ft 457 kts 319°
2026-04-16 21:13 -10.63641 -52.51832 35842 ft 457 kts 319°
2026-04-16 21:14 -10.58755 -52.55954 35842 ft 457 kts 319°
2026-04-16 21:14 -10.53860 -52.60082 35850 ft 458 kts 319°
2026-04-16 21:15 -10.48931 -52.64238 36091 ft 461 kts 319°
2026-04-16 21:15 -10.46467 -52.66314 36373 ft 459 kts 319°
2026-04-16 21:15 -10.44019 -52.68376 36646 ft 457 kts 319°
2026-04-16 21:15 -10.41573 -52.70436 36854 ft 456 kts 319°
2026-04-16 21:16 -10.39120 -52.72503 37017 ft 457 kts 319°
2026-04-16 21:16 -10.36676 -52.74560 37209 ft 457 kts 319°
2026-04-16 21:16 -10.34264 -52.76591 37429 ft 455 kts 319°
2026-04-16 21:16 -10.31825 -52.78644 37640 ft 454 kts 319°
2026-04-16 21:17 -10.29391 -52.80691 37817 ft 454 kts 319°
2026-04-16 21:17 -10.24509 -52.84800 37837 ft 457 kts 319°
2026-04-16 21:18 -10.19615 -52.88915 37831 ft 455 kts 319°
2026-04-16 21:18 -10.14748 -52.93005 37833 ft 453 kts 319°
2026-04-16 21:19 -10.09901 -52.97078 37833 ft 452 kts 319°
2026-04-16 21:19 -10.05066 -53.01140 37831 ft 451 kts 319°
2026-04-16 21:20 -10.00237 -53.05194 37832 ft 450 kts 319°
2026-04-16 21:20 -9.95403 -53.09252 37836 ft 451 kts 319°
2026-04-16 21:21 -9.90573 -53.13309 37832 ft 451 kts 318°
2026-04-16 21:21 -9.85897 -53.17563 37831 ft 451 kts 315°
2026-04-16 21:22 -9.81305 -53.21913 37836 ft 452 kts 315°
2026-04-16 21:22 -9.76685 -53.26257 37829 ft 453 kts 315°
2026-04-16 21:23 -9.72039 -53.30591 37832 ft 454 kts 315°
2026-04-16 21:23 -9.67378 -53.34928 37831 ft 455 kts 315°
2026-04-16 21:24 -9.62710 -53.39273 37829 ft 456 kts 315°
2026-04-16 21:24 -9.58031 -53.43628 37832 ft 456 kts 316°
2026-04-16 21:25 -9.53350 -53.47980 37827 ft 457 kts 316°
2026-04-16 21:25 -9.48687 -53.52303 37830 ft 457 kts 316°
2026-04-16 21:26 -9.43990 -53.56653 37826 ft 457 kts 316°
2026-04-16 21:26 -9.39293 -53.61002 37830 ft 457 kts 316°
2026-04-16 21:27 -9.34599 -53.65351 37827 ft 457 kts 316°
2026-04-16 21:27 -9.29909 -53.69693 37829 ft 457 kts 316°
2026-04-16 21:28 -9.25207 -53.74045 37824 ft 457 kts 316°
2026-04-16 21:28 -9.20545 -53.78358 37829 ft 457 kts 316°
2026-04-16 21:29 -9.15849 -53.82701 37827 ft 457 kts 316°
2026-04-16 21:29 -9.11150 -53.87045 37825 ft 458 kts 316°
2026-04-16 21:30 -9.06447 -53.91391 37822 ft 458 kts 316°
2026-04-16 21:30 -9.01735 -53.95744 37821 ft 458 kts 316°
2026-04-16 21:31 -8.97025 -54.00094 37826 ft 459 kts 316°
2026-04-16 21:31 -8.92311 -54.04445 37820 ft 459 kts 316°
2026-04-16 21:32 -8.87586 -54.08805 37830 ft 459 kts 316°
2026-04-16 21:32 -8.82861 -54.13163 37824 ft 460 kts 316°
2026-04-16 21:33 -8.78163 -54.17496 37825 ft 460 kts 316°
2026-04-16 21:33 -8.73428 -54.21860 37825 ft 461 kts 316°
2026-04-16 21:34 -8.68686 -54.26230 37827 ft 461 kts 316°
2026-04-16 21:34 -8.63947 -54.30595 37824 ft 461 kts 316°
2026-04-16 21:35 -8.59208 -54.34959 37823 ft 461 kts 316°
2026-04-16 21:35 -8.54470 -54.39319 37816 ft 461 kts 316°
2026-04-16 21:36 -8.49730 -54.43681 37825 ft 460 kts 316°
2026-04-16 21:36 -8.44992 -54.48039 37827 ft 460 kts 316°
2026-04-16 21:37 -8.40263 -54.52387 37823 ft 460 kts 316°
2026-04-16 21:37 -8.35536 -54.56732 37827 ft 459 kts 316°
2026-04-16 21:38 -8.30843 -54.61044 37824 ft 459 kts 316°
2026-04-16 21:38 -8.26120 -54.65383 37823 ft 459 kts 316°
2026-04-16 21:39 -8.21397 -54.69720 37827 ft 459 kts 316°
2026-04-16 21:39 -8.16667 -54.74062 37825 ft 459 kts 316°
2026-04-16 21:40 -8.11935 -54.78404 37823 ft 459 kts 316°
2026-04-16 21:40 -8.07205 -54.82743 37822 ft 460 kts 316°
2026-04-16 21:41 -8.02471 -54.87084 37821 ft 460 kts 316°
2026-04-16 21:41 -7.97759 -54.91404 37824 ft 460 kts 316°
2026-04-16 21:42 -7.93016 -54.95751 37823 ft 461 kts 316°
2026-04-16 21:42 -7.88268 -55.00101 37822 ft 461 kts 317°
2026-04-16 21:43 -7.83515 -55.04453 37820 ft 462 kts 316°
2026-04-16 21:43 -7.78758 -55.08809 37819 ft 462 kts 317°
2026-04-16 21:44 -7.73993 -55.13170 37828 ft 462 kts 317°
2026-04-16 21:44 -7.69232 -55.17526 37821 ft 462 kts 317°
2026-04-16 21:45 -7.65280 -55.21141 37827 ft 462 kts 317°
2026-04-16 21:45 -7.60519 -55.25495 37818 ft 462 kts 317°
2026-04-16 21:46 -7.55751 -55.29854 37820 ft 461 kts 317°
2026-04-16 21:46 -7.50999 -55.34197 37821 ft 461 kts 317°
2026-04-16 21:47 -7.46254 -55.38533 37829 ft 460 kts 317°
2026-04-16 21:47 -7.41517 -55.42860 37815 ft 459 kts 317°
2026-04-16 21:48 -7.36796 -55.47186 37820 ft 458 kts 317°
2026-04-16 21:48 -7.32094 -55.51512 37817 ft 457 kts 317°
2026-04-16 21:49 -7.27419 -55.55799 37825 ft 457 kts 317°
2026-04-16 21:49 -7.22615 -55.59980 37815 ft 457 kts 319°
2026-04-16 21:50 -7.17762 -55.64113 37819 ft 457 kts 319°
2026-04-16 21:50 -7.12914 -55.68260 37817 ft 457 kts 319°
2026-04-16 21:51 -7.08079 -55.72417 37822 ft 458 kts 319°
2026-04-16 21:51 -7.03220 -55.76602 37822 ft 460 kts 319°
2026-04-16 21:52 -6.98346 -55.80800 37819 ft 462 kts 319°
2026-04-16 21:52 -6.93487 -55.84983 37810 ft 463 kts 319°
2026-04-16 21:53 -6.88579 -55.89207 37814 ft 464 kts 319°
2026-04-16 21:53 -6.83656 -55.93441 37820 ft 465 kts 319°
2026-04-16 21:54 -6.78731 -55.97676 37822 ft 466 kts 319°
2026-04-16 21:54 -6.73806 -56.01910 37814 ft 465 kts 319°
2026-04-16 21:55 -6.68881 -56.06143 37815 ft 465 kts 319°
2026-04-16 21:55 -6.63966 -56.10367 37811 ft 464 kts 319°
2026-04-16 21:56 -6.59063 -56.14579 37810 ft 462 kts 319°
2026-04-16 21:56 -6.54209 -56.18748 37815 ft 461 kts 319°
2026-04-16 21:57 -6.49332 -56.22935 37814 ft 460 kts 319°
2026-04-16 21:57 -6.44465 -56.27112 37812 ft 460 kts 319°
2026-04-16 21:58 -6.39601 -56.31286 37808 ft 459 kts 319°
2026-04-16 21:58 -6.34748 -56.35449 37813 ft 458 kts 319°
2026-04-16 21:59 -6.29900 -56.39608 37812 ft 458 kts 319°
2026-04-16 21:59 -6.25048 -56.43768 37814 ft 458 kts 319°
2026-04-16 22:00 -6.20194 -56.47929 37810 ft 459 kts 319°
2026-04-16 22:00 -6.15338 -56.52091 37813 ft 459 kts 319°
2026-04-16 22:01 -6.10471 -56.56261 37814 ft 460 kts 319°
2026-04-16 22:01 -6.05601 -56.60433 37813 ft 460 kts 319°
2026-04-16 22:02 -6.00728 -56.64607 37811 ft 461 kts 319°
2026-04-16 22:02 -5.95844 -56.68789 37820 ft 461 kts 319°
2026-04-16 22:03 -5.90960 -56.72970 37804 ft 462 kts 319°
2026-04-16 22:03 -5.86071 -56.77155 37807 ft 462 kts 319°
2026-04-16 22:04 -5.81178 -56.81342 37808 ft 462 kts 319°
2026-04-16 22:04 -5.76361 -56.85557 37793 ft 462 kts 313°
2026-04-16 22:05 -5.72574 -56.90714 37801 ft 459 kts 297°
2026-04-16 22:05 -5.69607 -56.96388 37801 ft 459 kts 296°
2026-04-16 22:06 -5.66656 -57.02094 37791 ft 460 kts 296°
2026-04-16 22:06 -5.62173 -57.10619 37794 ft 460 kts 297°
2026-04-16 22:07 -5.59168 -57.16284 37815 ft 459 kts 297°
2026-04-16 22:07 -5.56167 -57.21936 37800 ft 459 kts 297°
2026-04-16 22:08 -5.53182 -57.27557 37793 ft 459 kts 297°
2026-04-16 22:08 -5.50181 -57.33210 37806 ft 458 kts 297°
2026-04-16 22:09 -5.47074 -57.38780 37791 ft 458 kts 306°
2026-04-16 22:09 -5.43056 -57.43725 37800 ft 457 kts 309°
2026-04-16 22:10 -5.38980 -57.48617 37801 ft 457 kts 309°
2026-04-16 22:10 -5.34926 -57.53531 37814 ft 456 kts 309°
2026-04-16 22:11 -5.30900 -57.58450 37806 ft 456 kts 308°
2026-04-16 22:11 -5.26872 -57.63386 37806 ft 456 kts 308°
2026-04-16 22:12 -5.22866 -57.68293 37808 ft 456 kts 308°
2026-04-16 22:12 -5.18840 -57.73222 37810 ft 456 kts 308°
2026-04-16 22:13 -5.14823 -57.78137 37805 ft 456 kts 308°
2026-04-16 22:13 -5.10800 -57.83059 37800 ft 456 kts 308°
2026-04-16 22:14 -5.06783 -57.87973 37802 ft 455 kts 308°
2026-04-16 22:14 -5.02771 -57.92879 37796 ft 455 kts 308°
2026-04-16 22:15 -4.98759 -57.97784 37795 ft 454 kts 308°
2026-04-16 22:15 -4.94750 -58.02686 37812 ft 454 kts 308°
2026-04-16 22:16 -4.90751 -58.07573 37815 ft 454 kts 308°
2026-04-16 22:16 -4.86750 -58.12462 37800 ft 454 kts 308°
2026-04-16 22:17 -4.82742 -58.17359 37802 ft 454 kts 308°
2026-04-16 22:17 -4.78737 -58.22250 37808 ft 454 kts 308°
2026-04-16 22:18 -4.74751 -58.27119 37811 ft 455 kts 308°
2026-04-16 22:18 -4.70731 -58.32026 37809 ft 455 kts 308°
2026-04-16 22:19 -4.66706 -58.36940 37810 ft 456 kts 308°
2026-04-16 22:19 -4.62671 -58.41864 37726 ft 458 kts 308°
2026-04-16 22:20 -4.60627 -58.44358 37189 ft 464 kts 308°
2026-04-16 22:20 -4.58581 -58.46855 36642 ft 462 kts 309°
2026-04-16 22:20 -4.56541 -58.49344 36118 ft 461 kts 309°
2026-04-16 22:20 -4.54516 -58.51813 35730 ft 456 kts 309°
2026-04-16 22:21 -4.52505 -58.54266 35297 ft 454 kts 309°
2026-04-16 22:21 -4.50506 -58.56704 34881 ft 451 kts 309°
2026-04-16 22:21 -4.48545 -58.59095 34446 ft 449 kts 309°
2026-04-16 22:21 -4.46569 -58.61505 34026 ft 446 kts 309°
2026-04-16 22:22 -4.44601 -58.63905 33555 ft 445 kts 309°
2026-04-16 22:22 -4.42642 -58.66293 33117 ft 442 kts 309°
2026-04-16 22:22 -4.40692 -58.68671 32688 ft 439 kts 309°
2026-04-16 22:22 -4.38757 -58.71030 32269 ft 436 kts 309°
2026-04-16 22:23 -4.36838 -58.73369 31858 ft 434 kts 309°
2026-04-16 22:23 -4.34926 -58.75698 31452 ft 431 kts 309°
2026-04-16 22:23 -4.33028 -58.78012 31052 ft 429 kts 309°
2026-04-16 22:23 -4.31137 -58.80316 30645 ft 427 kts 309°
2026-04-16 22:24 -4.29257 -58.82606 30239 ft 425 kts 309°
2026-04-16 22:24 -4.27385 -58.84888 29816 ft 424 kts 309°
2026-04-16 22:24 -4.25514 -58.87167 29359 ft 421 kts 309°
2026-04-16 22:24 -4.23682 -58.89398 28930 ft 418 kts 309°
2026-04-16 22:25 -4.21839 -58.91643 28502 ft 415 kts 309°
2026-04-16 22:25 -4.20010 -58.93871 28090 ft 412 kts 309°
2026-04-16 22:25 -4.18193 -58.96084 27678 ft 409 kts 309°
2026-04-16 22:25 -4.16385 -58.98286 27279 ft 406 kts 309°
2026-04-16 22:26 -4.14593 -59.00468 26874 ft 404 kts 309°
2026-04-16 22:26 -4.12813 -59.02635 26481 ft 402 kts 309°
2026-04-16 22:26 -4.11043 -59.04790 26081 ft 400 kts 309°
2026-04-16 22:26 -4.09282 -59.06934 25692 ft 398 kts 309°
2026-04-16 22:27 -4.07524 -59.09073 25280 ft 396 kts 309°
2026-04-16 22:27 -4.05802 -59.11169 24897 ft 394 kts 309°
2026-04-16 22:27 -4.04065 -59.13284 24490 ft 393 kts 309°
2026-04-16 22:27 -4.02323 -59.15404 24093 ft 392 kts 309°
2026-04-16 22:28 -4.00591 -59.17511 23704 ft 391 kts 309°
2026-04-16 22:28 -3.98866 -59.19611 23290 ft 390 kts 309°
2026-04-16 22:28 -3.97140 -59.21710 22849 ft 388 kts 309°
2026-04-16 22:28 -3.95429 -59.23792 22440 ft 386 kts 310°
2026-04-16 22:29 -3.93726 -59.25863 22046 ft 383 kts 310°
2026-04-16 22:29 -3.92037 -59.27918 21659 ft 380 kts 310°
2026-04-16 22:29 -3.90362 -59.29956 21279 ft 378 kts 310°
2026-04-16 22:29 -3.88694 -59.31984 20899 ft 375 kts 310°
2026-04-16 22:30 -3.87042 -59.33994 20527 ft 373 kts 310°
2026-04-16 22:30 -3.85420 -59.35967 20158 ft 371 kts 310°
2026-04-16 22:30 -3.83784 -59.37956 19794 ft 369 kts 310°
2026-04-16 22:30 -3.82156 -59.39936 19411 ft 368 kts 310°
2026-04-16 22:31 -3.80532 -59.41911 19045 ft 366 kts 310°
2026-04-16 22:31 -3.78915 -59.43876 18665 ft 365 kts 310°
2026-04-16 22:31 -3.77300 -59.45839 18288 ft 364 kts 310°
2026-04-16 22:31 -3.75693 -59.47793 17892 ft 363 kts 310°
2026-04-16 22:32 -3.74630 -59.49085 17627 ft 361 kts 310°
2026-04-16 22:32 -3.72502 -59.51672 17121 ft 358 kts 310°
2026-04-16 22:32 -3.71457 -59.52942 16875 ft 356 kts 310°
2026-04-16 22:32 -3.69881 -59.54858 16510 ft 354 kts 310°
2026-04-16 22:33 -3.68323 -59.56752 16156 ft 352 kts 310°
2026-04-16 22:33 -3.66773 -59.58635 15796 ft 349 kts 310°
2026-04-16 22:33 -3.65230 -59.60510 15446 ft 347 kts 310°
2026-04-16 22:33 -3.63702 -59.62366 15097 ft 345 kts 310°
2026-04-16 22:34 -3.62172 -59.64226 14743 ft 343 kts 310°
2026-04-16 22:34 -3.60657 -59.66067 14394 ft 342 kts 310°
2026-04-16 22:34 -3.59168 -59.67876 14039 ft 341 kts 310°
2026-04-16 22:34 -3.57663 -59.69703 13688 ft 339 kts 310°
2026-04-16 22:35 -3.56166 -59.71521 13302 ft 338 kts 310°
2026-04-16 22:35 -3.54675 -59.73333 12930 ft 336 kts 310°
2026-04-16 22:35 -3.53196 -59.75130 12564 ft 334 kts 310°
2026-04-16 22:35 -3.51721 -59.76920 12222 ft 332 kts 310°
2026-04-16 22:36 -3.50257 -59.78698 11872 ft 330 kts 310°
2026-04-16 22:36 -3.48802 -59.80466 11527 ft 328 kts 310°
2026-04-16 22:36 -3.47356 -59.82221 11188 ft 326 kts 310°
2026-04-16 22:36 -3.45922 -59.83963 10847 ft 324 kts 310°
2026-04-16 22:37 -3.44484 -59.85709 10502 ft 323 kts 310°
2026-04-16 22:37 -3.43059 -59.87439 10151 ft 322 kts 310°
2026-04-16 22:37 -3.41654 -59.89146 9989 ft 314 kts 310°
2026-04-16 22:37 -3.40281 -59.90814 9832 ft 307 kts 310°
2026-04-16 22:38 -3.38943 -59.92438 9751 ft 296 kts 310°
2026-04-16 22:38 -3.37621 -59.94043 9270 ft 301 kts 310°
2026-04-16 22:38 -3.36292 -59.95655 8918 ft 301 kts 310°
2026-04-16 22:38 -3.34990 -59.97236 8719 ft 290 kts 310°
2026-04-16 22:39 -3.33734 -59.98761 8499 ft 279 kts 311°
2026-04-16 22:39 -3.32515 -60.00241 8234 ft 271 kts 311°
2026-04-16 22:39 -3.31333 -60.01676 7964 ft 264 kts 311°
2026-04-16 22:39 -3.30173 -60.03083 7705 ft 261 kts 311°
2026-04-16 22:40 -3.29017 -60.04486 7451 ft 262 kts 311°
2026-04-16 22:40 -3.27839 -60.05914 7205 ft 271 kts 311°
2026-04-16 22:40 -3.26621 -60.07390 6913 ft 277 kts 311°
2026-04-16 22:40 -3.25400 -60.08872 6623 ft 273 kts 311°
2026-04-16 22:41 -3.24210 -60.10318 6336 ft 266 kts 311°
2026-04-16 22:41 -3.23047 -60.11729 6052 ft 259 kts 311°
2026-04-16 22:41 -3.21913 -60.13106 5772 ft 253 kts 311°
2026-04-16 22:41 -3.20811 -60.14444 5508 ft 246 kts 311°
2026-04-16 22:42 -3.19733 -60.15752 5263 ft 241 kts 311°
2026-04-16 22:42 -3.18668 -60.17044 5033 ft 241 kts 311°
2026-04-16 22:42 -3.17602 -60.18337 4790 ft 241 kts 311°
2026-04-16 22:42 -3.16538 -60.19626 4546 ft 241 kts 311°
2026-04-16 22:43 -3.15485 -60.20905 4285 ft 241 kts 310°
2026-04-16 22:43 -3.14393 -60.22154 4116 ft 235 kts 322°
2026-04-16 22:43 -3.12968 -60.22817 4031 ft 220 kts 351°
2026-04-16 22:43 -3.11492 -60.22919 3923 ft 207 kts
2026-04-16 22:44 -3.10075 -60.22905 3830 ft 200 kts
2026-04-16 22:44 -3.08729 -60.22888 3742 ft 188 kts
2026-04-16 22:44 -3.07451 -60.22877 3669 ft 181 kts
2026-04-16 22:44 -3.06182 -60.22861 3526 ft 185 kts
2026-04-16 22:45 -3.04990 -60.22438 3335 ft 182 kts 36°
2026-04-16 22:45 -3.04166 -60.21491 3149 ft 183 kts 63°
2026-04-16 22:45 -3.03880 -60.20267 2921 ft 182 kts 88°
2026-04-16 22:45 -3.03848 -60.19027 2657 ft 173 kts 88°
2026-04-16 22:46 -3.03835 -60.17880 2452 ft 158 kts 89°
2026-04-16 22:46 -3.03835 -60.16810 2243 ft 151 kts 89°
2026-04-16 22:46 -3.03836 -60.15760 2057 ft 153 kts 89°
2026-04-16 22:46 -3.03838 -60.14686 1855 ft 154 kts 89°
2026-04-16 22:47 -3.03840 -60.13634 1659 ft 152 kts 89°
2026-04-16 22:47 -3.03843 -60.12584 1467 ft 151 kts 89°
2026-04-16 22:47 -3.03845 -60.11517 1278 ft 155 kts 89°
2026-04-16 22:47 -3.03847 -60.10435 1068 ft 155 kts 89°
2026-04-16 22:48 -3.03850 -60.09360 891 ft 154 kts 89°
2026-04-16 22:48 -3.03853 -60.08291 704 ft 152 kts 89°
2026-04-16 22:48 -3.03854 -60.07243 501 ft 148 kts 89°
2026-04-16 22:48 -3.03855 -60.06245 300 ft 140 kts 89°
2026-04-16 22:49 -3.03859 -60.05404 268 ft 95 kts 90°
2026-04-16 22:49 -3.03860 -60.04902 269 ft 61 kts 90°
2026-04-16 22:49 -3.03860 -60.04512 270 ft 53 kts 90°
2026-04-16 22:49 -3.03861 -60.04168 270 ft 46 kts 90°
2026-04-16 22:50 -3.03862 -60.03870 269 ft 34 kts 90°
2026-04-16 22:50 -3.03762 -60.03769 269 ft 23 kts 350°
2026-04-16 22:50 -3.03672 -60.03884 269 ft 22 kts 287°
2026-04-16 22:50 -3.03633 -60.04031 269 ft 21 kts 284°
2026-04-16 22:51 -3.03593 -60.04173 269 ft 21 kts 285°
2026-04-16 22:51 -3.03527 -60.04297 269 ft 20 kts 315°
2026-04-16 22:51 -3.03409 -60.04369 269 ft 20 kts 341°
2026-04-16 22:51 -3.03313 -60.04428 269 ft 14 kts 323°
2026-04-16 22:52 -3.03248 -60.04451 269 ft 1 kts 345°